{"data":{"norad_id":32708,"intl_designator":"2008-011A","name":"AMC-14","alt_names":[],"object_type":"PAYLOAD","status":"ACTIVE","operator":null,"country":"US","launch_date":"2008-03-14","launch_site_code":"TYMSC","launch_vehicle":null,"mission":null,"orbit_class":"UNKNOWN","rcs_meters":13.1101,"size_class":null,"mass_kg":null,"dimensions":null,"purposes":["comms"],"wikipedia_slug":null,"has_3d_model":false,"image_url":null,"decayed_at":null,"tle_current":{"epoch":"2026-09-19T20:02:54.772224Z","epoch_age_seconds":71867,"freshness":"FRESH","line1":"1 32708U 08011A   26262.83535616 -.00000358  00000+0  00000+0 0  9990","line2":"2 32708  24.1188  19.3758 0035117   1.3884  34.2450  1.00437207 69120","mean_motion":1.00437207,"eccentricity":0.0035117,"inclination_deg":24.1188,"raan_deg":19.3758,"arg_perigee_deg":1.3884,"mean_anomaly_deg":34.245,"bstar":0,"rev_number":6912,"period_min":1433.7316249744,"perigee_km":35592.377568078,"apogee_km":35888.192091959,"semimajor_km":42118.421830019,"source":"CELESTRAK","updated_at":"2026-09-20T09:00:35.131317Z"}}}